User: anonymous   Login
Location: Newark
(45.4422°N, 16.2769°E)
Time: 01:39:42
(UTC+00:00)
Language:

deb Explorer IX - Orbit

View from above orbital plane
View from above orbital plane
View from above satellite
View from above satellite

Ground track
Ground track

The orbit data is extracted from the following two-line orbital elements,

1    85U 61004C   19346.78095390 +.00001641 +00000-0 +37591-3 0  9998
2    85 038.7695 257.9014 0387658 328.8962 028.9354 14.20043228904400
Epoch (UTC): 12 December 2019 18:44:34
Eccentricity: 0.0387658
inclination: 38.7695°
perigee height: 546 km
apogee height: 1104 km
right ascension of ascending node: 257.9014°
argument of perigee: 328.8962°
revolutions per day: 14.20043228
mean anomaly at epoch: 28.9354°
orbit number at epoch: 90440

The dashed part of the orbit path shows where the satellite is in the earth's shadow,  

DLR